Knoxville, TN

5:54 PM EST on November 16, 2019 (GMT -0500)
McGhee Tyson

Weather History for KTYS - September, 2019

Change the Weather History Date:

Tuesday, September 3, 2019

  Actual Average Record
Temperature  
Mean Temperature 80 °F 75 °F  
Max Temperature 91 °F 86 °F 98 °F (1925)
Min Temperature 68 °F 65 °F 50 °F (1987)
Degree Days  
Heating Degree Days 0 0  
Month to date heating degree days 0 0  
Since 1 July heating degree days 0 0  
Cooling Degree Days 15 10  
Month to date cooling degree days 40 32  
Year to date cooling degree days 1493 1313  
Growing Degree Days 30 (Base 50)    
Moisture  
Dew Point 65 °F    
Average Humidity 67    
Maximum Humidity 90    
Minimum Humidity 36    
Precipitation  
Precipitation 0.00 in 0.10 in 5.30 in (1898)
Month to date precipitation 0.00 0.29  
Year to date precipitation 48.23 33.89  
Snow  
Snow 0.00 in 0.00 in - ()
Month to date snowfall 0.0 0.0  
Since 1 July snowfall 0.0 0.0  
Since 1 September snowfall 0.0 0.0  
Snow Depth 0.00 in    
Sea Level Pressure  
Sea Level Pressure 29.99 in    
Wind  
Wind Speed 3 mph ()    
Max Wind Speed 8 mph    
Max Gust Speed 10 mph    
Visibility 10.0 miles    
Events      
T = Trace of Precipitation, MM = Missing Value Source: Averaged Metar Reports

Daily Weather History Graph

Daily Weather History Graph

Search for Another Location

Airport or City:

Astronomy

Sep. 03, 2019 Rise Set
Actual Time 7:09 AM EDT 8:00 PM EDT
Civil Twilight 6:43 AM EDT 8:26 PM EDT
Nautical Twilight 6:12 AM EDT 8:57 PM EDT
Astronomical Twilight 5:40 AM EDT 9:29 PM EDT
Moon 11:51 AM EDT (9/3) 11:07 PM EDT (9/3)
Length of Visible Light 13h 43m
Length of Day
12h 51m
Waxing Crescent, 24% of the Moon is Illuminated
Sep 3
Waxing Crescent
Sep 5
First Quarter
Sep 14
Full
Sep 21
Last Quarter
Sep 28
New

Hourly Weather History & Observations

Time (EDT) Temp. Heat Index Dew Point Humidity Pressure Visibility Wind Dir Wind Speed Gust Speed Precip Events Conditions
12:53 AM 72.0 °F - 66.9 °F 84% 30.00 in 10.0 mi Calm Calm - N/A   Clear
1:53 AM 71.1 °F - 66.0 °F 84% 30.01 in 10.0 mi NNE 3.5 mph - N/A   Clear
2:53 AM 70.0 °F - 66.0 °F 87% 29.99 in 10.0 mi Calm Calm - N/A   Clear
3:53 AM 70.0 °F - 66.0 °F 87% 29.98 in 10.0 mi NE 3.5 mph - N/A   Clear
4:53 AM 70.0 °F - 66.0 °F 87% 29.98 in 10.0 mi NNE 3.5 mph - N/A   Clear
5:53 AM 68.0 °F - 64.9 °F 90% 29.99 in 10.0 mi Calm Calm - N/A   Clear
6:53 AM 68.0 °F - 64.9 °F 90% 30.01 in 10.0 mi NE 3.5 mph - N/A   Clear
7:53 AM 69.1 °F - 66.0 °F 90% 30.03 in 10.0 mi NE 4.6 mph - N/A   Clear
8:53 AM 71.1 °F - 66.0 °F 84% 30.03 in 10.0 mi ENE 4.6 mph - N/A   Clear
9:53 AM 75.0 °F - 66.9 °F 76% 30.04 in 10.0 mi ESE 4.6 mph - N/A   Clear
10:53 AM 80.1 °F 82.3 °F 66.9 °F 64% 30.03 in 10.0 mi Variable 3.5 mph - N/A   Clear
11:53 AM 82.9 °F 85.8 °F 68.0 °F 60% 30.03 in 10.0 mi SW 3.5 mph - N/A   Partly Cloudy
12:53 PM 86.0 °F 89.4 °F 68.0 °F 55% 30.01 in 10.0 mi NE 3.5 mph - N/A   Partly Cloudy
1:53 PM 89.1 °F 91.3 °F 66.0 °F 46% 30.01 in 10.0 mi Variable 4.6 mph - N/A   Scattered Clouds
2:53 PM 90.0 °F 90.3 °F 62.1 °F 39% 29.99 in 10.0 mi Variable 4.6 mph - N/A   Scattered Clouds
3:53 PM 91.0 °F 90.9 °F 61.0 °F 36% 29.96 in 10.0 mi North 4.6 mph - N/A   Scattered Clouds
4:53 PM 90.0 °F 90.0 °F 61.0 °F 38% 29.95 in 10.0 mi NW 3.5 mph - N/A   Clear
5:53 PM 91.0 °F 90.9 °F 61.0 °F 36% 29.94 in 10.0 mi NNW 5.8 mph - N/A   Partly Cloudy
6:53 PM 90.0 °F 90.3 °F 62.1 °F 39% 29.95 in 10.0 mi NW 3.5 mph - N/A   Partly Cloudy
7:53 PM 84.9 °F 86.6 °F 64.9 °F 51% 29.96 in 10.0 mi NE 3.5 mph - N/A   Clear
8:53 PM 81.0 °F 82.7 °F 64.9 °F 58% 29.96 in 10.0 mi NE 4.6 mph - N/A   Clear
9:53 PM 77.0 °F - 68.0 °F 74% 29.98 in 10.0 mi East 3.5 mph - N/A   Clear
10:53 PM 75.9 °F - 66.9 °F 74% 29.98 in 10.0 mi Calm Calm - N/A   Clear
11:53 PM 75.0 °F - 66.0 °F 73% 29.98 in 10.0 mi ENE 3.5 mph - N/A   Clear